TimeCDT,TemperatureF,Dew PointF,Humidity,Sea Level PressureIn,VisibilityMPH,Wind Direction,Wind SpeedMPH,Gust SpeedMPH,PrecipitationIn,Events,Conditions,WindDirDegrees,DateUTC
12:15 AM,82.4,55.4,39,30.02,10.0,South,17.3,-,N/A,,Clear,180,2013-09-08 05:15:00
12:35 AM,82.4,55.4,39,30.02,10.0,South,15.0,19.6,N/A,,Clear,180,2013-09-08 05:35:00
12:55 AM,80.6,57.2,45,30.01,10.0,South,12.7,-,N/A,,Clear,190,2013-09-08 05:55:00
1:15 AM,80.6,57.2,45,30.02,10.0,South,13.8,-,N/A,,Clear,190,2013-09-08 06:15:00
1:35 AM,80.6,59.0,48,30.02,10.0,SSW,11.5,-,N/A,,Clear,210,2013-09-08 06:35:00
1:55 AM,78.8,59.0,51,30.02,10.0,SSW,9.2,-,N/A,,Clear,200,2013-09-08 06:55:00
2:15 AM,78.8,59.0,51,30.02,10.0,SSW,9.2,-,N/A,,Clear,200,2013-09-08 07:15:00
2:35 AM,78.8,59.0,51,30.02,10.0,SSW,9.2,-,N/A,,Clear,200,2013-09-08 07:35:00
2:55 AM,78.8,59.0,51,30.02,10.0,SSW,9.2,-,N/A,,Clear,210,2013-09-08 07:55:00
3:15 AM,78.8,59.0,51,30.01,10.0,SSW,9.2,-,N/A,,Clear,200,2013-09-08 08:15:00
3:35 AM,77.0,59.0,54,30.01,10.0,SSW,10.4,-,N/A,,Clear,210,2013-09-08 08:35:00
3:55 AM,77.0,59.0,54,30.01,10.0,SSW,10.4,-,N/A,,Clear,210,2013-09-08 08:55:00
4:15 AM,77.0,59.0,54,30.01,10.0,SSW,10.4,-,N/A,,Clear,210,2013-09-08 09:15:00
4:35 AM,77.0,59.0,54,30.01,10.0,SSW,9.2,-,N/A,,Clear,210,2013-09-08 09:35:00
4:55 AM,75.2,59.0,57,30.00,10.0,SSW,9.2,-,N/A,,Clear,200,2013-09-08 09:55:00
5:15 AM,75.2,59.0,57,30.00,10.0,SSW,8.1,-,N/A,,Clear,210,2013-09-08 10:15:00
5:35 AM,73.4,59.0,61,30.01,10.0,SSW,10.4,-,N/A,,Clear,210,2013-09-08 10:35:00
5:55 AM,73.4,59.0,61,30.00,10.0,SSW,8.1,-,N/A,,Clear,210,2013-09-08 10:55:00
6:15 AM,73.4,59.0,61,30.01,10.0,SW,9.2,-,N/A,,Clear,220,2013-09-08 11:15:00
6:35 AM,73.4,59.0,61,30.01,10.0,SW,9.2,-,N/A,,Clear,220,2013-09-08 11:35:00
6:55 AM,73.4,59.0,61,30.01,10.0,SSW,9.2,-,N/A,,Clear,210,2013-09-08 11:55:00
7:15 AM,73.4,59.0,61,30.02,10.0,SSW,10.4,-,N/A,,Clear,210,2013-09-08 12:15:00
7:35 AM,73.4,59.0,61,30.02,10.0,SSW,9.2,-,N/A,,Clear,210,2013-09-08 12:35:00
7:55 AM,73.4,59.0,61,30.02,10.0,SW,9.2,-,N/A,,Clear,220,2013-09-08 12:55:00
8:15 AM,77.0,59.0,54,30.02,10.0,SSW,8.1,-,N/A,,Clear,210,2013-09-08 13:15:00
8:35 AM,78.8,59.0,51,30.02,10.0,SW,10.4,-,N/A,,Clear,220,2013-09-08 13:35:00
8:55 AM,80.6,59.0,48,30.02,10.0,SW,11.5,-,N/A,,Clear,220,2013-09-08 13:55:00
9:15 AM,82.4,59.0,45,30.02,10.0,SW,10.4,-,N/A,,Clear,220,2013-09-08 14:15:00
9:35 AM,84.2,59.0,42,30.02,10.0,SW,15.0,-,N/A,,Clear,220,2013-09-08 14:35:00
9:55 AM,86.0,57.2,37,30.02,10.0,SW,12.7,-,N/A,,Clear,230,2013-09-08 14:55:00
10:15 AM,87.8,57.2,35,30.02,10.0,SW,15.0,-,N/A,,Clear,230,2013-09-08 15:15:00
10:35 AM,87.8,57.2,35,30.02,10.0,SSW,12.7,-,N/A,,Clear,210,2013-09-08 15:35:00
10:55 AM,89.6,55.4,31,30.02,10.0,SW,10.4,18.4,N/A,,Clear,230,2013-09-08 15:55:00
11:15 AM,89.6,57.2,33,30.03,10.0,SW,8.1,-,N/A,,Clear,230,2013-09-08 16:15:00
11:35 AM,91.4,57.2,31,30.02,10.0,SSW,9.2,-,N/A,,Clear,200,2013-09-08 16:35:00
11:55 AM,91.4,57.2,31,30.02,10.0,SSW,11.5,-,N/A,,Clear,200,2013-09-08 16:55:00
12:15 PM,91.4,55.4,29,30.02,10.0,SSW,10.4,-,N/A,,Clear,210,2013-09-08 17:15:00
12:35 PM,93.2,55.4,28,30.02,10.0,South,10.4,16.1,N/A,,Clear,190,2013-09-08 17:35:00
12:55 PM,93.2,55.4,28,30.01,10.0,South,11.5,-,N/A,,Clear,180,2013-09-08 17:55:00
1:15 PM,-9999,-9999,N/A,30.00,10.0,South,9.2,16.1,N/A,,Clear,180,2013-09-08 18:15:00
1:35 PM,-9999,-9999,N/A,30.00,10.0,SSW,6.9,-,N/A,,Clear,200,2013-09-08 18:35:00
1:55 PM,-9999,-9999,N/A,29.99,10.0,South,13.8,17.3,N/A,,Clear,180,2013-09-08 18:55:00
2:15 PM,95.0,55.4,26,29.99,10.0,ESE,6.9,-,N/A,,Scattered Clouds,120,2013-09-08 19:15:00
2:35 PM,-9999,-9999,N/A,29.98,10.0,SSE,6.9,-,N/A,,Scattered Clouds,160,2013-09-08 19:35:00
2:55 PM,-9999,-9999,N/A,29.97,10.0,South,13.8,20.7,N/A,,Scattered Clouds,170,2013-09-08 19:55:00
3:15 PM,-9999,-9999,N/A,29.96,10.0,South,11.5,18.4,N/A,,Scattered Clouds,170,2013-09-08 20:15:00
3:35 PM,-9999,-9999,N/A,29.96,10.0,South,15.0,20.7,N/A,,Clear,170,2013-09-08 20:35:00
3:55 PM,-9999,-9999,N/A,29.95,10.0,South,12.7,17.3,N/A,,Scattered Clouds,190,2013-09-08 20:55:00
4:15 PM,-9999,-9999,N/A,29.95,10.0,South,16.1,20.7,N/A,,Clear,190,2013-09-08 21:15:00
4:35 PM,-9999,-9999,N/A,29.94,10.0,SSW,15.0,20.7,N/A,,Scattered Clouds,200,2013-09-08 21:35:00
4:55 PM,-9999,-9999,N/A,29.93,10.0,South,13.8,19.6,N/A,,Scattered Clouds,180,2013-09-08 21:55:00
5:15 PM,-9999,-9999,N/A,29.93,10.0,South,13.8,21.9,N/A,,Scattered Clouds,180,2013-09-08 22:15:00
5:35 PM,-9999,-9999,N/A,29.93,10.0,South,16.1,19.6,N/A,,Clear,170,2013-09-08 22:35:00
5:55 PM,-9999,-9999,N/A,29.93,10.0,South,16.1,23.0,N/A,,Clear,170,2013-09-08 22:55:00
6:15 PM,-9999,-9999,N/A,29.93,10.0,South,13.8,-,N/A,,Clear,190,2013-09-08 23:15:00
6:35 PM,-9999,-9999,N/A,29.93,10.0,South,16.1,19.6,N/A,,Clear,170,2013-09-08 23:35:00
6:55 PM,-9999,-9999,N/A,29.93,10.0,South,13.8,18.4,N/A,,Clear,180,2013-09-08 23:55:00
7:15 PM,-9999,-9999,N/A,29.93,10.0,SSE,12.7,20.7,N/A,,Clear,160,2013-09-09 00:15:00
7:35 PM,-9999,-9999,N/A,29.93,10.0,SSE,10.4,-,N/A,,Clear,160,2013-09-09 00:35:00
7:55 PM,-9999,-9999,N/A,29.93,10.0,SSE,8.1,-,N/A,,Clear,160,2013-09-09 00:55:00
8:15 PM,86.0,51.8,31,29.94,10.0,SSE,6.9,-,N/A,,Clear,150,2013-09-09 01:15:00
8:35 PM,82.4,51.8,35,29.94,10.0,SSE,8.1,-,N/A,,Clear,160,2013-09-09 01:35:00
8:55 PM,82.4,51.8,35,29.94,10.0,SSE,8.1,-,N/A,,Clear,150,2013-09-09 01:55:00
9:15 PM,82.4,50.0,32,29.95,10.0,SSE,9.2,-,N/A,,Clear,160,2013-09-09 02:15:00
9:35 PM,82.4,50.0,32,29.95,10.0,SSE,10.4,-,N/A,,Clear,160,2013-09-09 02:35:00
9:55 PM,82.4,50.0,32,29.96,10.0,SSE,10.4,-,N/A,,Clear,160,2013-09-09 02:55:00
10:15 PM,82.4,50.0,32,29.96,10.0,SSE,9.2,-,N/A,,Clear,150,2013-09-09 03:15:00
10:35 PM,80.6,50.0,34,29.97,10.0,SSE,9.2,-,N/A,,Clear,160,2013-09-09 03:35:00
10:55 PM,80.6,51.8,37,29.97,10.0,SSE,10.4,-,N/A,,Clear,160,2013-09-09 03:55:00
11:15 PM,80.6,51.8,37,29.97,10.0,SSE,10.4,-,N/A,,Clear,160,2013-09-09 04:15:00
11:35 PM,80.6,51.8,37,29.98,10.0,SSE,10.4,-,N/A,,Clear,160,2013-09-09 04:35:00
11:55 PM,80.6,51.8,37,29.98,10.0,SSE,9.2,-,N/A,,Clear,160,2013-09-09 04:55:00